Regional Weather Roundup
Issued by NWS Wakefield, VA

Home | Current Version | Previous Version | Graphics & Text | Print | Product List | Glossary On
Versions: 1 2 3 4 5 6 7 8 9 10 11 12 13 14 15 16 17 18 19 20 21 22 23 24 25 26 27
000
ASUS41 KAKQ 221915
RWRAKQ

REGIONAL WEATHER ROUNDUP
NATIONAL WEATHER SERVICE WAKEFIELD VA
300 PM EDT SUN APR 22 2018

Note: "fair" indicates few or no clouds below 12,000 feet with no
significant weather and/or obstructions to visibility. * = Denotes
station may not report precipitation (e.g., rain,snow,etc.),
thunder or fog.

VAZ042-051-052>054-056-222000-
NORTHERN VIRGINIA

CITY           SKY/WX    TMP DP  RH WIND       PRES   REMARKS
WASH NATIONAL  PTSUNNY   65  44  46 SE13      30.35F
DULLES         PTSUNNY   66  40  38 VRB6      30.33F
FORT BELVOIR   PTSUNNY   66  41  39 SE8       30.34F
QUANTICO       FAIR      67  47  48 S8        30.34F
FREDERICKSBRG* FAIR      69  45  42 SE6       30.32S
STAFFORD*      PTSUNNY   69  42  38 SE3       30.37S
WARRENTON      FAIR      71  37  29 CALM      30.30F
CULPEPER*      FAIR      70  41  35 S3        30.32F
MANASSAS*      PTSUNNY   68  43  40 E7        30.33F
LEESBURG*      CLOUDY    66  43  42 NE5       30.34F
WINCHESTER     FAIR      64  41  42 E6        30.33F
FRONT ROYAL*   FAIR      64  41  42 E6        30.30S
LURAY*         FAIR      68  36  30 S6        30.29F
$$

VAZ048-049-060>072-079>083-222000-
CENTRAL AND SOUTH CENTRAL VIRGINIA

CITY           SKY/WX    TMP DP  RH WIND       PRES   REMARKS
RICHMOND       CLOUDY    68  42  38 S7        30.34F
CHESTERFIELD*  FAIR      68  42  38 S7        30.34F
PETERSBURG*    FAIR      67  36  32 CALM      30.35S
HANOVER        FAIR      67  42  40 CALM      30.35F
TAPPAHANNOCK*  FAIR      64  41  42 E10G17    30.36F
QUINTON*       FAIR      67  41  39 MISG      30.35S
CHARLOTTSVILLE FAIR      69  42  37 S6        30.30F
GORDONSVILLE*  FAIR      67  43  42 CALM      30.31F
ORANGE*        FAIR      68  41  37 CALM      30.31F
LOUISA*        FAIR      69  43  39 S7        30.36F
BUMPASS*       FAIR      67  41  39 S7        30.32F
FARMVILLE*     FAIR      68  42  38 SE3       30.31F
CREWE*         FAIR      67  43  41 SE3       30.33F
FORT PICKETT*  MOCLDY    67  42  39 E6        30.33F
CHASE CITY*    FAIR      69  41  36 S5        30.32F
CLARKSVILLE*   FAIR      70  37  30 S8        30.32F
SOUTH HILL*    FAIR      68  41  37 S8        30.39S
LAWRENCEVILLE* FAIR      69  38  33 SE7       30.33F
EMPORIA*       FAIR      68  36  30 S5        30.36S
$$

VAZ088>098-222000-
SOUTHEAST VIRGINIA

CITY           SKY/WX    TMP DP  RH WIND       PRES   REMARKS
NORFOLK        FAIR      62  30  29 E12       30.39S
VIRGINIA BEACH PTSUNNY   60  34  37 SE10      30.40S
NORFOLK NAVAL  CLOUDY    62  33  33 E13       30.40S
WEST POINT*    FAIR      62  36  37 E10       30.39S
SALUDA*        MOCLDY    58  36  43 SE8       30.39S
NEWPORT NEWS   FAIR      61  35  37 E15       30.38F
LANGLEY AFB    PTSUNNY   60  35  38 SE13      30.39F
FORT EUSTIS    PTSUNNY   62  33  34 E9        30.35S
WILLIAMSBURG*  FAIR      66  36  32 SE9       30.38S
HR EXEC AP*    FAIR      68  36  30 E10G16    30.37F
FRANKLIN*      FAIR      69  38  31 SE7       30.35F
US460-WAKEFLD  FAIR      68  38  33 CALM      30.35F
$$

VAZ020-022-025-037-045-222000-
WEST CENTRAL AND SOUTHWEST VIRGINIA

CITY           SKY/WX    TMP DP  RH WIND       PRES   REMARKS
STAUNTON*      FAIR      65  38  37 S6        30.32F
WAYNESBORO*    FAIR      64  41  43 SE7       30.30F
HOT SPRINGS VA PTSUNNY   58  28  32 S8G16     30.32F
LYNCHBURG      FAIR      68  39  34 S9        30.30F
DANVILLE       FAIR      68  41  37 S8        30.31F
SOUTH BOSTON*  FAIR      70  33  25 SE6       30.32F
MARTINSVILLE   FAIR      66  42  41 S5        30.32F
ROANOKE        CLOUDY    67  43  41 SE15      30.30S
BLACKSBURG     FAIR      65  39  38 CALM      30.32F
DUBLIN*        FAIR      67  39  35 S9        30.29F
MARION*        FAIR      66  45  45 SE6       30.28F
HILLSVILLE*    FAIR      61  44  54 S12       30.29F
RICHLANDS*     FAIR      68  26  20 SE8       30.24F
WISE*          FAIR      66  37  34 SE8       30.24F
ABINGDON*      FAIR      69  37  31 CALM      30.23F
$$

MDZ021>025-VAZ099-100-222000-
SOUTHERN MARYLAND AND THE DELMARVA PENINSULA

CITY           SKY/WX    TMP DP  RH WIND       PRES   REMARKS
PATUXENT RIVER CLOUDY    60  46  59 SE12      30.38F
BAY BRIDGE APT FAIR      66  34  30 S8        30.37F
LEONARDTOWN    FAIR      61  36  39 E10G16    30.39S
DOVER          MOSUNNY   60  26  27 E9        30.39F
GEORGETOWN     FAIR      62  30  29 E8        30.39F
EASTON         MOSUNNY   66  34  30 W5        30.40F
CAMBRIDGE      SUNNY     64  28  25 VRB7G14   30.38F
SALISBURY      FAIR      62  37  39 SE13G23   30.39S
TANGIER        FAIR      61  48  63 SE8       30.39F
OCEAN CITY     FAIR      53  35  50 SE9       30.42F
WALLOPS ISLAND FAIR      57  43  59 SE12      30.42F
ACCOMACK*      FAIR      59  32  35 S9        30.40F
$$

NCZ012>017-030>032-222000-
NORTH CENTRAL AND EASTERN NORTH CAROLINA

CITY           SKY/WX    TMP DP  RH WIND       PRES   REMARKS
ROANOKE RAPIDS FAIR      68  39  34 S5        30.34F
RALEIGH        CLOUDY    69  44  40 S7        30.33F
ELIZABETH CITY FAIR      64  36  35 E10       30.40S
AHOSKIE*       FAIR      68  40  36 S6        30.35F
EDENTON*       FAIR      66  40  38 E10       30.38F
CURRITUCK*     NOT AVBL
KILL DEVIL HLS FAIR      56  36  47 NE3       30.40S
MANTEO         FAIR      56  36  45 E12       30.41S
CAPE HATTERAS  FAIR      61  42  49 NE8       30.39R
TARBORO*       NOT AVBL
GOLDSBORO      FAIR      72  39  30 E13G20    30.30F
WASHINGTON     FAIR      69  36  29 CALM      30.36F
GREENVILLE     FAIR      70  41  35 SE6       30.34F HAZE
NEW BERN       FAIR      68  35  29 SE9       30.36F
WILMINGTON     PTSUNNY   67  46  47 E15       30.33F
$$

VAZ048-222000-
ELSEWHERE

CITY           SKY/WX    TMP DP  RH WIND       PRES   REMARKS
HARRISBURG PA  FAIR      64  27  24 CALM      30.36F
BALTIMORE      PTSUNNY   64  35  34 E8        30.36F
ANNAPOLIS      FAIR      61  47  59 SE7       30.37F
ANDREWS AFB    PTSUNNY   64  42  44 E14       30.34F
PHILADELPHIA   PTSUNNY   63  23  21 S8        30.37F
HENDERSON NC   FAIR      66  38  36 SE9       30.32F
GREENSBORO     CLOUDY    66  39  37 SE5       30.30F
ROCKY MOUNT    FAIR      69  39  33 VRB3      30.34F
$$

VAZ100-222000-
MARINE

STATION/POSITION TIME  TEMP    WIND        PRES    WAVE   SWELL
                       AIR SEA DIR/SP/G            HT/PER HT/PER
                 (UTC) (F)     (DEG/KT/KT) (MB)    (FT/S) (FT/S)
BRANDYWINE LGT   1842   50     160/ 12/ 13 1030.1F
CAPE MAY NJ      1842   54 51  140/  8/ 12 1029.2F
LEWES DE         1848   54 52  130/  9/ 12 1029.6F
15NM E FENWICK I 1850   48 48   80/  8/  8 1030.5F   1/16   2/16
OCEAN-CITY-INLET 1848   52 50  110/  7/ 10 1030.5F
WACHAPREAGUE VA  1848   54 57  110/  8/ 10 1030.1F
THOMAS POINT MD  1900   58 53   CALM  /  1 1029.4F
GOOSES REEF MD   1900   55     220/ 12/ 14 1029.1
COVE POINT MD    1848   54     170/ 10/ 11 1029.6F
SOLOMONS ISLAND  1848   56 54  130/ 11/ 13 1028.6F
BISHOPS HEAD MD  1848   57 62  170/ 11/ 12 1029.3F
PINEY POINT MD   1848          150/ 16/ 18   N/A
POTOMAC MD       1900   55 54  140/ 10/ 12 1030.2    1/ 2
CAMBRIDGE MD     1848   65 57              1029.4F
LEWISETTA VA     1848   60 57  130/ 13/ 16 1028.5F
RAPPAHANNOCK LGT 1836          110/ 14/ 14 1030.1F
YORK RVR RNG VA  1836   54     140/ 15/ 17 1029.7F
YORKTOWN VA      1836   57 57  110/ 15/ 16 1028.8S
DOMINION TERM VA 1836   60      20/  2/  5 1029.2F
KIPTOPEKE VA     1836      55  120/ 10/ 13   N/A
CAPE HENRY VA    1836   56     120/  8/ 12   N/A
WILLOUBY STN VA  1836   56     100/ 14/ 16 1029.0F
S CRANEY ISL VA  1836   60      80/ 16/ 20 1028.4F
CAPE HENRY BUOY  1900      54                N/A     1/ 9
64NM E OF VA BCH 1850   51 51   40/  8/ 10 1030.2F   1/ 8   2/ 8
DUCK PIER NC     1836   53 54   70/ 11/ 12 1029.3S
44100 DUCK FRF   1845      51                N/A     2/13
44056 DUCK FRF   1900      54                N/A     2/15
OREGON INLET NC  1836   53 57   40/ 10/ 13 1029.3F
HATTERAS NC      1836   58 61   60/ 10/ 13 1028.7F
DIAMOND SHLS NC  1850   61 74   20/ 12/ 16 1028.7F   3/ 5   2/ 8
CAPE LOOKOUT NC  1900           50/ 15/ 16 1028.3F
$$




USA.gov is the U.S. government's official web portal to all federal, state and local government web resources and services.